Current Version              Previous Version:    01  02  03  04  05  06  07  08  09  10  11  12  13  14  15  16  17  18  19  20  21  22  23  24  25  26  27  28  29  30  
   31  32  33  34  35  36  37  38  39  40  41  42  43  44  45  46  47  48  49  50  51  52  53  54  55  56  57  58  59  60  

[Printable]
980
ASUS44 KEWX 212310
RWRTX
SOUTH TEXAS REGIONAL WEATHER ROUNDUP
NATIONAL WEATHER SERVICE AUSTIN/SAN ANTONIO TX
600 PM CDT SUN SEP 21 2014

NOTE: "FAIR" INDICATED FEW OR NO CLOUDS BELOW 12,000 FEET WITH NO
SIGNIFICANT WEATHER AND/OR OBSTRUCTIONS TO VISIBILITY.

* - THESE STATIONS ARE NOT NWS OR FAA STATIONS...AND ARE NOT SUBJECT
    TO NWS AND FAA QUALITY CONTROL.

TXZ171-172-183>190-220000-
TEXAS HILL COUNTRY AND EDWARDS PLATEAU

CITY           SKY/WX    TMP DP  RH WIND       PRES   REMARKS
JUNCTION       CLOUDY    87  62  43 E10       30.04S
*LLANO         MOSUNNY   90  66  45 E8        30.05S HX  92
BURNET         MOSUNNY   86  63  45 E7        30.05S
*HORSESHOE BAY MOSUNNY   88  61  39 E6        30.02S
*KERRVILLE     SUNNY     86  65  49 E9        30.04S
*FREDERICKSBRG MOSUNNY   85  62  46 E8        30.05S
*ROCKSPRINGS   PTSUNNY   82  66  57 SE9       30.08S
*BOERNE STAGE  PTSUNNY   88  61  40 E7        30.03S
*CASTROVILLE   MOSUNNY   92  57  30 E12G20    29.99R HX  91
HONDO          CLOUDY    91  63  39 E14       29.99R HX  92
*UVALDE        CLOUDY    88  67  48 E7        29.98S HX  90
DEL RIO        LGT RAIN  80  73  79 N5        29.97R
LAUGHLIN AFB   CLOUDY    82  73  74 SE10      29.98S
CARRIZO SPRGS  CLOUDY    82  70  65 SE7       29.96S
$$

TXZ173-191>194-202-209-217>225-228-220000-
CENTRAL AND SOUTH CENTRAL TEXAS

CITY           SKY/WX    TMP DP  RH WIND       PRES   REMARKS
GEORGETOWN     NOT AVBL
AUSTIN/BERGSTM MOSUNNY   89  65  44 NE9       29.99R HX  91
AUSTIN/MABRY   SUNNY     88  66  48 E5        30.01R HX  90
*AUSTIN/EXEC   MOSUNNY   88  64  45 E9        30.01R
*LAGO VISTA    MOSUNNY   87  63  44 E8G16     30.03S
SAN MARCOS     MOSUNNY   90  63  40 NE13      30.00R HX  90
NEW BRAUNFELS  SUNNY     91  63  39 E10       29.97S HX  92
RANDOLPH AFB   CLOUDY    88  65  46 E10       29.99R HX  90
PT SAN ANTONIO SUNNY     91  65  43 NE14      29.97R HX  92
SAN ANTONIO    MOSUNNY   90  64  42 NE13      29.99R HX  91
STINSON FIELD  PTSUNNY   89  65  44 E10       29.96R HX  91
*PLEASANTON    CLOUDY    91  64  40 NE8       29.96R HX  92
*LA GRANGE     SUNNY     90  68  49 E6        29.97S HX  94
*GIDDINGS      SUNNY     87  64  45 E7        30.03S
*GONZALES      SUNNY     89  67  48 E9        29.97R HX  92
$$

TXZ163>164-176>182-195>201-210>213-226-227-235-220000-
SOUTHEAST TEXAS

CITY           SKY/WX    TMP DP  RH WIND       PRES   REMARKS
COLLEGE STN    MOSUNNY   89  65  44 E9        29.99S HX  91
*BRYAN         SUNNY    N/A N/A N/A NE3       29.99S
*CALDWELL      SUNNY     88  63  42 E5        30.02F
*CROCKETT      SUNNY     91  66  43 NE5       30.02S HX  94
*BRENHAM       SUNNY     90  66  44 E7        30.00R HX  92
HUNTSVILLE     SUNNY     90  64  42 VRB3      30.00S HX  91
CONROE         SUNNY     88  67  49 VRB3      29.99S HX  91
HOUSTON BUSH   SUNNY     88  67  49 E9        29.97F HX  91
HOUSTON HOBBY  SUNNY     88  68  51 NE10      29.96F HX  91
*HOUSTON SW AP MOSUNNY   83  67  57 NE7       29.97S
PEARLAND       SUNNY     89  68  49 E9        29.98S HX  93
HOUSTON HOOKS  SUNNY     89  67  47 E8        29.98S HX  92
ELLINGTON FLD  MOSUNNY   88  68  51 E8        29.98S HX  91
SUGAR LAND     SUNNY     89  67  47 E9        29.96F HX  92
*HOUSTON EXEC  PTSUNNY   86  68  54 NE6       29.99R
*CLEVELAND MUN SUNNY     87  74  65 CALM      29.99S HX  96
*WHARTON       SUNNY     88  65  46 E8        29.97S
$$

TXZ214>216-236>238-220000-
THE UPPER TEXAS COAST

CITY           SKY/WX    TMP DP  RH WIND       PRES   REMARKS
*ORANGE        MOSUNNY   88  67  49 NE6       29.98S HX  91
PORT ARTHUR    SUNNY     89  68  49 NE10      29.96F HX  93
GALVESTON      SUNNY     84  72  67 E10       29.97S
ANGLETON       SUNNY     85  69  58 E9        29.97S
*BAY CITY      SUNNY     88  72  58 E8        29.96S HX  94
PALACIOS       SUNNY     87  67  51 E15       29.95S HX  90
$$

TXZ229>234-239>247-220000-
TEXAS COASTAL BEND AND RIO GRANDE PLAINS

CITY           SKY/WX    TMP DP  RH WIND       PRES   REMARKS
VICTORIA       MOSUNNY   90  70  51 E13       29.95S HX  95
*BEEVILLE      MOSUNNY   90  67  46 MISG      29.94R HX  93
ROCKPORT       SUNNY     85  72  65 E16       29.94R HX  91
*PORT ARANSAS  MOSUNNY   84  73  68 E16G23    29.94R HX  90
*PORT LAVACA   SUNNY     86  74  66 E14       29.95R HX  93
*INGLESIDE     MOSUNNY   87  71  59 E16G23    29.94R HX  93
CORPUS CHRISTI MOSUNNY   85  73  67 E17       29.94R HX  91
CORPUS NAS     SUNNY     85  74  69 E18       29.93S HX  92
*ROBSTOWN      SUNNY     87  73  64 E16       29.94R HX  94
ALICE          SUNNY     87  74  64 E14G21    29.93S HX  95
KINGSVILLE NAS MOSUNNY   84  76  76 E17G24    29.93R HX  93
COTULLA        CLOUDY    82  75  79 CALM      29.95F
*FAITH RANCH   MOSUNNY   82  70  65 E12       29.98S
LAREDO         MOSUNNY   87  70  57 E18G28    29.96S HX  92
$$

TXZ248>255-220000-
DEEP SOUTH TEXAS

CITY           SKY/WX    TMP DP  RH WIND       PRES   REMARKS
BROWNSVILLE    MOSUNNY   86  76  71 NE9       29.89S HX  96
PORT ISABEL    MOSUNNY   85  76  74 E9        29.89R HX  94
*SOUTH PADRE   MOSUNNY   86  75  70 NE7       29.89S HX  95
HARLINGEN      MOSUNNY   86  75  69 NE15      29.88S HX  95
*HEBBRONVILLE    N/A     82  73  74 E12       29.96R
MCALLEN        MOSUNNY   87  74  64 NE10      29.90S HX  95
*WESLACO       MOSUNNY   88  73  61 E8        29.89S HX  95
FALFURRIAS     MOSUNNY  N/A N/A N/A E15G23    29.92R
EDINBURG       MOSUNNY   88  73  60 NE14      29.90S HX  95
*ZAPATA        PTSUNNY   90  69  51 E14G24    29.91S HX  94
$$

TXZ213>215-236>238-242>244-246-247-251-254-255-220000-
CMAN STATIONS

STATION/POSITION TIME  TEMP    WIND        PRES    WAVE
                       AIR SEA DIR/SP/G            HT/PER
                 (UTC) (F)     (DEG/KT/KT) (MB)    (FT/S)
SABINE PASS      2300   87 83   50/  7/  9 1014.8
SEA RIM ST PARK  2300   83     160/  6/  7 1015.1
NORTH JETTY/GLS  2300   83 83  140/ 12/ 12   N/A
EAGLE POINT      2300   84 83  140/  5/  6 1015.0
MORGANS POINT    2300   87      80/  7/ 10 1014.7
MISSION/ARANSAS  2200           80/ 17     1015.0
PORT O`CONNOR    2300           80/ 19/ 21   N/A
PORT ARANSAS     2300   83 84   50/ 19/ 22 1014.4
MALAQUITE BEACH  2300   84 85   50/ 17/ 20 1012.8
BAFFIN BAY       2300   83 87   60/ 18/ 21 1013.2
PORT ISABEL      2300   84 85   50/  5/  8 1012.4
$$

GMZ080-GMZ150>470-220000-
OFFSHORE BUOY REPORTS

STATION/POSITION TIME  TEMP    WIND        PRES    WAVE
                       AIR SEA DIR/SP/G            HT/PER
                 (UTC) (F)     (DEG/KT/KT) (MB)    (FT/S)
20 E GALVESTON   2300   83 84   80/ 12/ 12 1014.2    3/ 5
90 E PT ARANSAS  2300   83 85   60/ 19/ 21 1013.6    5/ 6
35 NE PT MANSFLD 2300   84 85   70/ 17/ 19 1012.0    4/ 7
200 E PT ISABEL  2300   84 86   30/ 10/ 12 1011.7    4/ 8
$$